Overview Statistics Trail Chart Weather Telemetry Raw packets
 

This is the latest recevied weather packets stored in our database for station/object DB7GV-8. If no packets are shown the sender has not sent any weather packets the latest 10 day(s).

<< 31 32 33 34 35 36 >>
Time Temp. Humidity Pressure Rain* Wind** Luminosity Snow
1776955285 23.33° C 19% 1023.2 hPa - - - -
1776954379 23.33° C 19% 1023.3 hPa - - - -
1776953474 22.78° C 19% 1023.5 hPa - - - -
1776952568 23.33° C 19% 1023.5 hPa - - - -
1776951664 23.33° C 18% 1023.6 hPa - - - -
1776948947 23.33° C 17% 1024.2 hPa - - - -
1776948041 23.89° C 17% 1024.4 hPa - - - -
1776947136 23.89° C 16% 1024.5 hPa - - - -
1776946231 23.89° C 16% 1024.7 hPa - - - -
1776945325 23.89° C 16% 1024.8 hPa - - - -
1776944420 24.44° C 17% 1024.8 hPa - - - -
1776943515 23.89° C 19% 1024.9 hPa - - - -
1776942609 23.89° C 19% 1025.1 hPa - - - -
1776941703 23.89° C 19% 1025.2 hPa - - - -
1776939893 23.89° C 19% 1025.5 hPa - - - -
1776938987 23.33° C 19% 1025.6 hPa - - - -
1776938082 22.78° C 20% 1025.8 hPa - - - -
1776937177 23.33° C 21% 1025.8 hPa - - - -
1776936271 22.78° C 21% 1025.9 hPa - - - -
1776935366 22.78° C 22% 1026.2 hPa - - - -
1776934461 21.67° C 22% 1026.1 hPa - - - -
1776933555 21.67° C 23% 1026.1 hPa - - - -
1776932650 21.67° C 22% 1026.2 hPa - - - -
1776931745 39.44° C 11% 1026.2 hPa - - - -
1776930838 40° C 12% 1026.3 hPa - - - -

* Rain since midnight (hover to see other rain measurements)
** Current wind speed in m/s (hover to see current wind gust speed)